Wind_Speed
4 3 8 18 10 2 0 4 5 3 5 4 7 10 13 16 21 16 24 34 39 36 31 27 23 20 16 13 11 9 8 8 8 6 4 3 1 1 2 3 5 6 8 9
1 10 14 3 6 8 8 10 9 5 8 4 6 14 11 7 18 36 38 34 42 38 35 31 27 23 18 13 12 10 9 9 8 7 5 3 2 1 4 6 8 9 10 10
11 6 7 10 7 5 7 11 7 11 6 7 5 26 14 9 12 29 29 42 38 42 42 38 33 27 22 17 13 10 10 10 11 9 7 5 3 2 4 6 8 9 10 11
9 9 6 4 6 11 13 9 11 9 2 7 6 14 9 7 12 15 25 34 38 43 42 40 36 31 24 19 15 13 13 13 12 11 8 5 3 2 3 4 6 8 9 11
9 7 8 15 17 11 6 6 8 7 5 4 8 4 3 10 9 13 19 29 40 47 48 45 39 32 25 20 17 17 16 14 12 10 8 6 4 2 1 3 5 7 10 12
5 3 6 8 5 11 3 0 3 3 4 6 8 9 30 8 16 12 19 35 43 45 46 44 39 32 28 23 21 19 16 15 13 10 9 7 5 2 1 3 5 8 9 11
6 18 4 2 2 3 4 3 2 2 3 9 11 10 30 6 5 9 17 27 36 42 46 46 43 40 33 28 25 22 18 14 12 11 10 8 5 3 2 3 6 7 8 10
4 6 8 8 19 9 12 10 5 5 5 6 7 11 8 6 6 8 23 31 33 40 45 47 46 43 36 31 28 23 19 16 13 11 9 7 5 3 2 3 5 7 9 11
3 5 1 2 10 13 4 10 19 10 8 5 5 9 7 3 2 3 10 23 34 41 44 45 46 43 38 33 27 23 20 16 13 12 10 7 5 3 2 4 4 7 9 10
3 12 4 4 2 7 12 2 4 1 5 8 10 15 14 6 6 4 5 16 25 31 36 41 45 43 36 30 26 23 19 15 13 12 10 8 6 4 3 3 4 5 7 9
5 3 9 3 5 7 2 4 6 2 5 5 4 6 8 14 15 11 10 21 25 29 33 38 44 42 35 30 27 23 20 17 15 13 11 9 7 5 3 2 2 4 6 7
3 1 5 7 15 12 14 5 1 6 8 4 5 11 3 6 6 8 9 16 21 27 31 36 42 40 35 30 27 24 20 18 16 13 11 10 8 5 3 2 2 2 4 6
2 3 6 15 5 7 6 7 11 11 2 10 9 8 5 5 6 10 8 15 22 27 31 36 40 39 35 31 28 23 20 18 17 15 14 11 7 4 2 1 1 3 4 6
4 3 6 9 10 1 6 14 10 3 5 13 14 21 27 10 7 3 11 19 24 29 33 39 41 39 35 31 28 25 22 21 19 17 14 11 7 5 3 1 2 2 4 5
1 5 7 10 10 7 9 12 12 11 11 6 13 16 23 3 5 4 9 12 23 30 34 41 44 40 37 35 30 27 25 24 21 18 15 12 9 7 5 4 4 2 3 3
3 4 6 5 12 13 8 14 11 16 16 9 6 13 9 8 12 7 7 15 19 23 33 38 42 42 40 39 35 30 30 28 25 19 18 14 11 9 8 6 4 2 2 1
6 3 4 7 3 0 7 13 13 10 6 5 7 7 8 10 12 12 11 14 19 22 27 36 42 46 42 36 34 37 34 27 24 21 18 16 14 12 9 8 5 3 2 2
9 6 3 3 2 6 6 4 6 14 9 14 10 11 10 13 14 15 20 18 20 24 31 32 39 43 39 37 38 36 32 29 23 22 21 19 16 14 11 9 7 5 5 4
16 8 5 3 5 6 9 6 6 7 7 14 14 12 14 20 16 19 25 24 26 22 29 31 33 40 43 45 39 38 36 28 27 24 24 19 18 14 13 10 9 8 6 4
17 14 8 4 4 6 5 3 2 1 5 3 5 6 5 7 2 7 12 17 22 19 21 26 32 38 40 42 38 38 34 31 28 25 22 20 18 15 14 12 11 9 7 5
8 10 16 7 5 6 6 9 2 2 6 4 1 5 3 5 6 9 7 11 20 19 19 24 33 39 39 37 35 38 34 31 26 25 23 20 17 16 15 14 12 10 7 6
11 8 4 7 4 9 12 2 8 6 2 5 11 12 12 13 12 11 9 6 6 6 7 15 28 33 32 32 34 38 33 29 27 26 24 21 20 20 18 14 14 11 8 7
4 5 5 8 7 5 7 8 8 6 11 18 18 17 15 12 12 11 7 4 3 5 7 13 19 24 26 30 31 35 34 32 31 28 24 23 22 21 18 16 13 12 10 7
3 4 4 3 6 8 13 9 15 16 16 15 16 15 14 13 10 9 7 6 5 5 9 12 17 21 26 28 32 32 30 30 27 24 23 24 24 23 19 16 13 11 8 7
5 11 7 2 5 2 11 15 18 16 10 12 11 12 12 12 10 8 6 7 6 7 9 12 16 20 24 29 31 31 28 28 26 25 25 25 23 21 20 16 12 10 7 5
6 6 5 4 10 8 5 5 8 8 8 10 10 11 10 9 9 7 6 5 7 7 9 14 16 19 24 27 29 28 26 26 26 26 26 25 25 23 20 19 17 13 9 8
Wind_Direction
172 149 204 219 212 246 184 212 234 248 262 266 233 245 252 212 199 198 201 198 203 204 203 204 204 204 200 198 201 197 205 227 226 221 212 209 229 281 326 342 344 340 337 332
129 228 223 193 207 213 234 255 258 275 259 257 272 257 244 206 206 200 203 202 208 204 202 203 202 202 202 205 202 203 201 213 215 214 214 213 224 298 340 351 354 350 344 337
202 211 213 199 215 203 222 225 243 246 323 271 300 278 251 230 219 214 212 212 209 204 203 202 200 200 202 203 209 204 196 191 194 199 202 208 222 299 339 345 343 342 342 340
245 213 201 161 213 193 249 205 233 247 186 260 172 283 233 201 210 192 200 200 204 207 211 210 202 199 200 202 201 195 187 178 180 185 187 196 222 277 320 336 351 356 358 1
235 178 197 227 229 186 232 177 202 216 214 288 221 293 239 190 203 205 208 196 204 210 212 210 206 201 199 202 200 192 187 186 185 184 182 187 196 211 337 13 10 8 10 9
256 280 161 196 228 200 182 83 240 91 138 256 179 193 275 210 211 206 206 200 203 204 212 211 205 199 198 197 198 193 191 190 185 181 180 181 182 166 68 20 16 18 16 10
284 254 265 223 250 165 140 123 288 277 170 242 167 186 247 308 203 192 195 204 200 201 207 208 198 195 195 195 194 195 193 191 184 184 182 177 169 146 76 25 26 25 18 13
214 310 185 199 214 198 212 175 199 248 215 259 178 231 245 248 268 220 210 203 195 203 208 210 201 195 194 194 194 193 192 194 191 187 185 178 171 149 95 47 33 22 13 13
231 258 314 148 238 199 226 206 218 251 261 307 280 295 290 285 266 135 164 180 197 206 207 206 200 196 194 193 191 193 196 195 195 195 190 183 178 160 105 65 39 20 15 9
289 293 223 337 286 243 220 194 96 143 225 237 242 262 257 329 288 344 157 202 202 201 198 198 199 195 193 192 189 192 197 201 202 199 194 187 180 158 121 85 37 19 8 0
359 223 269 26 235 268 293 249 243 170 209 257 260 243 224 238 232 231 222 217 202 195 191 196 196 192 189 189 191 192 197 204 206 202 196 187 176 160 125 93 49 16 3 357
13 100 281 271 275 256 247 245 170 234 252 239 250 255 39 339 274 233 227 213 206 198 191 193 194 188 187 190 192 194 198 204 209 204 196 185 181 168 139 104 46 354 4 350
339 31 322 321 346 7 11 11 14 341 129 250 268 256 96 31 328 299 196 184 181 179 181 190 190 189 189 192 193 194 201 203 206 201 197 194 193 181 171 155 22 337 354 344
142 161 224 270 280 285 311 324 332 42 278 276 250 267 280 286 287 252 178 186 182 188 190 191 188 191 193 193 195 198 201 201 201 198 196 200 199 200 200 233 273 303 349 348
192 222 214 231 235 239 248 256 284 286 266 264 316 285 259 336 297 198 198 188 177 184 188 193 190 191 196 197 197 201 199 200 199 199 198 202 205 201 205 223 255 316 330 321
182 254 196 263 226 228 256 251 254 255 265 237 298 324 342 340 335 348 173 179 202 198 190 198 197 194 201 202 200 198 200 194 196 191 199 199 203 202 208 217 228 264 282 279
199 217 206 254 178 180 271 246 228 233 212 218 234 212 249 284 311 291 287 222 218 218 204 198 211 209 203 201 201 199 196 192 189 197 197 204 198 202 204 208 212 202 197 187
223 207 208 266 179 237 242 205 202 224 236 217 258 259 261 246 232 279 280 262 264 256 229 225 217 217 210 204 206 203 199 190 196 196 199 202 200 199 199 203 196 189 171 169
213 210 231 230 215 298 297 255 183 196 262 231 231 270 279 265 238 271 274 273 276 266 260 260 238 224 214 209 206 201 195 194 196 194 200 203 202 199 199 192 195 180 164 171
211 207 215 168 207 222 234 284 201 213 285 220 183 245 270 153 185 253 273 262 271 276 252 251 242 233 224 213 211 203 192 198 195 197 195 201 206 199 194 185 186 179 165 171
205 203 215 200 212 275 237 243 294 135 247 210 303 305 206 203 227 278 282 249 258 265 252 240 232 227 219 213 205 199 199 196 197 192 194 199 198 196 193 182 175 169 160 168
199 177 205 210 214 256 213 140 180 215 306 315 311 303 276 273 278 284 295 285 273 270 237 209 206 203 203 202 200 197 196 198 193 189 195 195 189 194 191 182 171 163 157 163
228 203 181 184 206 228 212 212 206 283 287 297 301 302 283 270 275 288 289 279 239 217 201 194 196 193 193 195 197 194 197 193 186 190 192 188 190 191 187 182 179 167 162 158
227 155 216 115 220 229 232 234 271 291 288 293 298 293 283 264 266 270 269 278 273 229 204 196 192 189 189 191 193 202 194 185 187 190 187 188 190 183 183 180 178 175 169 165
183 162 179 276 277 303 257 249 267 267 272 291 302 305 290 271 268 263 255 266 250 225 213 199 195 193 193 191 193 192 195 188 190 188 185 187 189 187 183 181 179 178 178 176
192 172 165 207 198 171 200 241 258 256 286 285 291 292 287 278 270 268 266 255 242 228 218 207 202 202 200 196 194 193 191 190 192 185 184 188 190 187 186 182 172 180 205 208
Height
1495 1503 1504 1490 1492 1493 1495 1498 1497 1495 1488 1488 1489 1487 1480 1476 1480 1484 1485 1484 1485 1487 1492 1497 1500 1504 1505 1507 1508 1507 1508 1508 1509 1510 1511 1512 1513 1513 1513 1513 1513 1512 1511 1510
1496 1498 1488 1487 1491 1493 1495 1498 1497 1493 1488 1488 1488 1481 1476 1471 1470 1469 1471 1477 1478 1482 1485 1490 1494 1499 1502 1504 1506 1506 1505 1506 1507 1508 1509 1510 1510 1511 1511 1511 1511 1510 1509 1508
1485 1480 1480 1484 1488 1494 1493 1492 1491 1491 1488 1484 1484 1460 1465 1462 1460 1463 1466 1467 1472 1474 1478 1482 1487 1493 1497 1499 1502 1503 1504 1505 1506 1506 1507 1508 1509 1510 1510 1509 1508 1508 1506 1506
1483 1476 1479 1484 1485 1487 1490 1481 1482 1487 1492 1499 1482 1465 1451 1453 1453 1456 1458 1460 1463 1468 1474 1479 1483 1488 1492 1495 1498 1499 1500 1502 1504 1505 1505 1506 1508 1508 1508 1508 1507 1505 1504 1503
1473 1472 1475 1476 1472 1478 1478 1475 1479 1483 1490 1490 1482 1494 1438 1439 1450 1451 1447 1451 1454 1458 1462 1470 1477 1484 1488 1492 1495 1497 1498 1500 1501 1502 1503 1504 1505 1506 1506 1506 1505 1504 1502 1500
1473 1470 1469 1468 1470 1473 1472 1474 1476 1484 1490 1503 1468 1485 1412 1443 1430 1431 1436 1436 1440 1449 1457 1464 1472 1480 1483 1487 1490 1494 1496 1498 1499 1500 1501 1501 1502 1503 1504 1504 1504 1503 1501 1500
1473 1467 1469 1468 1470 1471 1474 1478 1499 1497 1498 1476 1458 1473 1411 1422 1421 1421 1426 1432 1436 1442 1449 1455 1464 1470 1476 1481 1485 1490 1493 1496 1497 1498 1499 1500 1500 1501 1501 1502 1503 1503 1502 1500
1476 1469 1462 1460 1462 1461 1461 1469 1480 1473 1480 1467 1457 1457 1428 1419 1416 1415 1417 1422 1432 1437 1442 1447 1455 1462 1470 1476 1482 1487 1490 1493 1495 1497 1498 1498 1498 1498 1499 1500 1501 1501 1501 1499
1471 1468 1454 1456 1456 1461 1462 1466 1456 1468 1468 1481 1466 1444 1425 1423 1420 1419 1419 1422 1425 1429 1434 1441 1450 1458 1465 1471 1476 1483 1488 1491 1493 1495 1496 1497 1497 1496 1497 1499 1499 1500 1499 1499
1466 1467 1455 1453 1453 1454 1457 1454 1470 1480 1473 1468 1458 1452 1439 1431 1428 1426 1424 1423 1425 1429 1434 1438 1446 1454 1462 1468 1473 1479 1486 1489 1492 1494 1494 1495 1496 1495 1495 1496 1498 1499 1498 1499
1471 1469 1456 1458 1460 1458 1457 1457 1455 1458 1467 1457 1452 1443 1418 1420 1420 1417 1417 1418 1421 1426 1432 1437 1443 1452 1460 1466 1470 1475 1481 1487 1491 1492 1492 1493 1494 1496 1495 1496 1497 1497 1498 1499
1477 1476 1475 1462 1453 1449 1449 1451 1453 1461 1462 1460 1451 1439 1418 1418 1417 1415 1413 1415 1420 1424 1430 1437 1442 1450 1456 1462 1467 1472 1477 1482 1488 1490 1491 1492 1493 1494 1493 1495 1495 1497 1495 1498
1476 1480 1475 1459 1455 1458 1458 1460 1459 1458 1457 1460 1450 1433 1415 1418 1419 1416 1412 1414 1418 1422 1427 1433 1441 1447 1453 1460 1465 1470 1474 1479 1485 1486 1488 1489 1492 1493 1493 1493 1494 1497 1495 1497
1476 1477 1483 1482 1473 1479 1475 1470 1468 1466 1463 1450 1442 1431 1413 1416 1419 1417 1413 1412 1416 1419 1421 1427 1434 1441 1449 1456 1462 1466 1470 1475 1480 1481 1484 1488 1488 1490 1493 1494 1495 1496 1494 1494
1477 1479 1477 1476 1475 1474 1470 1466 1465 1465 1456 1455 1445 1434 1412 1416 1418 1413 1414 1421 1416 1417 1419 1424 1427 1435 1443 1449 1454 1459 1463 1468 1474 1476 1479 1485 1486 1487 1489 1492 1496 1493 1493 1493
1476 1476 1475 1478 1468 1469 1459 1452 1447 1455 1449 1442 1442 1436 1428 1424 1418 1414 1411 1412 1422 1423 1413 1424 1427 1426 1433 1440 1445 1451 1456 1460 1467 1470 1475 1479 1483 1484 1487 1490 1492 1492 1494 1494
1473 1473 1473 1462 1460 1460 1460 1443 1437 1438 1436 1437 1434 1418 1422 1422 1421 1415 1414 1411 1416 1421 1420 1417 1426 1425 1426 1435 1442 1446 1452 1457 1462 1468 1472 1478 1477 1482 1484 1487 1489 1489 1491 1494
1464 1465 1465 1456 1457 1455 1435 1427 1427 1430 1425 1426 1423 1421 1417 1415 1413 1413 1412 1412 1413 1418 1420 1416 1417 1427 1429 1433 1437 1443 1450 1452 1458 1463 1469 1473 1475 1477 1481 1485 1486 1488 1488 1492
1452 1455 1455 1453 1449 1444 1431 1425 1429 1431 1422 1418 1417 1414 1414 1412 1413 1411 1407 1409 1409 1410 1414 1415 1418 1422 1424 1425 1432 1438 1442 1447 1453 1458 1466 1470 1474 1475 1478 1480 1485 1485 1485 1491
1443 1445 1450 1452 1454 1457 1431 1422 1421 1424 1429 1412 1410 1412 1411 1410 1418 1406 1401 1402 1403 1405 1407 1409 1413 1416 1421 1425 1428 1435 1438 1444 1451 1457 1462 1468 1474 1474 1477 1476 1482 1484 1484 1489
1433 1434 1432 1438 1439 1434 1421 1418 1421 1432 1425 1409 1409 1411 1410 1411 1409 1403 1398 1399 1402 1401 1401 1404 1406 1408 1414 1420 1426 1432 1438 1444 1448 1455 1462 1467 1470 1475 1476 1476 1478 1482 1484 1488
1423 1426 1431 1431 1435 1434 1412 1417 1421 1414 1410 1409 1409 1409 1408 1407 1406 1403 1397 1396 1398 1399 1398 1399 1402 1406 1410 1416 1422 1428 1438 1443 1449 1454 1460 1463 1465 1473 1477 1475 1477 1480 1484 1489
1423 1420 1425 1422 1417 1407 1408 1407 1407 1408 1410 1408 1407 1405 1404 1403 1403 1402 1399 1398 1398 1401 1401 1401 1402 1407 1412 1416 1420 1428 1436 1441 1447 1452 1456 1458 1463 1470 1473 1474 1477 1480 1485 1487
1408 1410 1416 1414 1405 1406 1406 1403 1404 1406 1407 1406 1404 1402 1401 1399 1399 1400 1400 1400 1401 1402 1402 1404 1407 1408 1412 1414 1420 1430 1437 1440 1446 1451 1456 1460 1464 1463 1470 1474 1477 1481 1484 1485
1398 1403 1404 1408 1402 1403 1401 1401 1404 1404 1403 1402 1400 1400 1399 1398 1398 1398 1398 1401 1402 1403 1404 1406 1408 1410 1413 1417 1422 1429 1434 1440 1444 1449 1454 1457 1465 1463 1467 1472 1477 1480 1484 1486
1391 1392 1396 1400 1392 1396 1397 1400 1401 1401 1399 1398 1397 1397 1398 1398 1400 1399 1399 1400 1403 1404 1404 1408 1410 1412 1415 1419 1424 1429 1434 1438 1443 1446 1452 1456 1460 1463 1467 1472 1474 1480 1483 1485